Flag for Germany Weather past 2 weeks in Gütersloh, North Rhine-Westphalia, Germany

Now
69 °F

Passing clouds.


Feels Like: 69 °F
Forecast: 51 / 75 °F
Wind: 1 mph from West

Location: Bad Lippspringe

Current Time: May 4, 2015 at 7:10:13 PM

Latest Report: May 4, 2015 at 6:00 PM


Visibility: 25 mi

Pressure: 29.78 "Hg

Humidity: 54%

Dew point: 52 °F

Location of GüterslohLocation

Historic Weather in Gütersloh — Graph

°F

Gütersloh temperature yesterday

Maximum temperature yesterday: 61 °F (at 1:00 PM)
Minimum temperature yesterday: 48 °F (at 4:00 AM)
Average temperature yesterday: 55 °F

Past Weeks' High & Low Weather Summary

 TemperatureHumidityPressure
High69 °F (May 4, 6:00 PM)100% (May 1, 5:00 AM)30.45 "Hg (May 1, 5:00 AM)
Low30 °F (Apr 29, 6:00 AM)24% (Apr 21, 5:00 PM)29.60 "Hg (Apr 27, 5:00 AM)
Average50 °F73%29.97 "Hg
* Reported Apr 19 6:00 PM — May 4 6:00 PM, Gütersloh, Weather by CustomWeather, © 2015

Note: Actual official high and low records may vary slightly from our data, if they occured in-between our weather recording intervals... More about our weather records

Advertising

Gütersloh weather history for previous 24 hours

 ConditionsComfort  
Time TempWeatherWind HumidityBarometerVisibility
6:00 PM
Mon, May 4
69 °FPassing clouds.1 mph54%29.78 "Hg25 mi
5:00 PM67 °FPassing clouds.3 mph56%29.78 "Hg25 mi
4:00 PM68 °FScattered clouds.5 mph56%29.79 "Hg19 mi
3:00 PM67 °FOvercast.5 mph56%29.80 "Hg18 mi
2:00 PM66 °FPassing clouds.5 mph56%29.80 "Hg13 mi
1:00 PM65 °FScattered clouds.6 mph58%29.81 "Hg22 mi
12:00 PM64 °FScattered clouds.8 mph61%29.80 "Hg16 mi
11:00 AM62 °FPartly sunny.6 mph69%29.78 "Hg25 mi
10:00 AM62 °FOvercast.3 mph73%29.78 "Hg22 mi
9:00 AM57 °FOvercast.1 mph88%29.78 "Hg14 mi
8:00 AM56 °FOvercast.2 mph86%29.77 "Hg15 mi
7:00 AM55 °FOvercast.1 mph89%29.75 "Hg17 mi
6:00 AM55 °FOvercast.2 mph89%29.74 "Hg19 mi
5:00 AM54 °FOvercast.2 mph95%29.72 "Hg9 mi
4:00 AM55 °FPassing clouds.2 mph94%29.72 "Hg12 mi
3:00 AM56 °FPassing clouds.2 mph92%29.70 "Hg22 mi
2:00 AM57 °FOvercast.3 mph90%29.69 "Hg28 mi
1:00 AM58 °FOvercast.3 mph90%29.67 "Hg28 mi
12:00 AM59 °FOvercast.3 mph90%29.65 "Hg37 mi
11:00 PM
Sun, May 3
59 °FOvercast.3 mph91%29.63 "Hg43 mi
10:00 PM58 °FDrizzle. Overcast.3 mph93%29.62 "Hg28 mi
9:00 PM57 °FLight rain. Overcast.2 mph95%29.61 "Hg6 mi
8:00 PM57 °FLight rain. Overcast.3 mph93%29.61 "Hg6 mi
7:00 PM57 °FLight rain. Overcast.2 mph92%29.62 "Hg4 mi
Weather by CustomWeather, © 2015

See weather overviewHow to use our weather pages